Selinsgrove, PA

8:09 PM EST on December 06, 2019 (GMT -0500)
Penn Valley

Weather History for KSEG - October, 2019

Change the Weather History Date:

Saturday, October 12, 2019

  Actual Average (WUND) Record (WUND)
Temperature  
Mean Temperature 53 °F -  
Max Temperature 64 °F - - (-1)
Min Temperature 41 °F - - (-1)
Degree Days  
Heating Degree Days 12    
Growing Degree Days 3 (Base 50)    
Moisture  
Dew Point 45 °F    
Average Humidity 86    
Maximum Humidity 100    
Minimum Humidity 58    
Precipitation  
Precipitation 0.00 in - - ()
Sea Level Pressure  
Sea Level Pressure 30.02 in    
Wind  
Wind Speed 0 mph (SW)    
Max Wind Speed 7 mph    
Max Gust Speed -    
Visibility 7 miles    
Events Fog    
Averages and records for this station are not official NWS values.
T = Trace of Precipitation, MM = Missing Value Source: NWS Daily Summary

Daily Weather History Graph

Daily Weather History Graph

Search for Another Location

Airport or City:

Astronomy

Oct. 12, 2019 Rise Set
Actual Time 7:15 AM EDT 6:32 PM EDT
Civil Twilight 6:47 AM EDT 6:59 PM EDT
Nautical Twilight 6:15 AM EDT 7:31 PM EDT
Astronomical Twilight 5:44 AM EDT 8:02 PM EDT
Moon 6:27 PM EDT (10/12) 5:49 AM EDT (10/12)
Length of Visible Light 12h 11m
Length of Day
11h 16m
Waxing Gibbous, 99% of the Moon is Illuminated
Oct 12
Waxing Gibbous
Oct 13
Full
Oct 21
Last Quarter
Oct 27
New
Nov 4
First Quarter

Hourly Weather History & Observations

Time (EDT) Temp. Dew Point Humidity Pressure Visibility Wind Dir Wind Speed Gust Speed Precip Events Conditions
12:53 AM 45.0 °F 44.1 °F 97% 30.05 in 10.0 mi Calm Calm - N/A   Clear
1:53 AM 44.1 °F 43.0 °F 96% 30.05 in 10.0 mi Calm Calm - N/A   Clear
2:53 AM 42.1 °F 42.1 °F 100% 30.04 in 10.0 mi Calm Calm - N/A   Clear
3:21 AM 43.0 °F 42.1 °F 97% 30.02 in 10.0 mi Calm Calm - N/A   Scattered Clouds
3:31 AM 43.0 °F 42.1 °F 97% 30.02 in 10.0 mi Calm Calm - N/A   Mostly Cloudy
3:53 AM 42.1 °F 41.0 °F 96% 30.02 in 10.0 mi Calm Calm - N/A   Overcast
4:14 AM 43.0 °F 43.0 °F 100% 30.02 in 1.8 mi Calm Calm - N/A   Overcast
4:21 AM 43.0 °F 42.1 °F 97% 30.02 in 0.8 mi Calm Calm - N/A   Overcast
4:53 AM 42.1 °F 42.1 °F 100% 30.02 in 0.5 mi Calm Calm - N/A Fog Fog
5:53 AM 45.0 °F 45.0 °F 100% 30.01 in 0.2 mi Calm Calm - N/A Fog Fog
6:53 AM 45.0 °F 45.0 °F 100% 30.01 in 0.2 mi Calm Calm - N/A Fog Fog
7:48 AM 44.6 °F 44.6 °F 100% 30.01 in 1.2 mi Calm Calm - N/A   Overcast
7:53 AM 45.0 °F 45.0 °F 100% 30.02 in 1.0 mi Calm Calm - N/A   Overcast
8:04 AM 46.0 °F 46.0 °F 100% 30.01 in 0.5 mi Calm Calm - N/A Fog Fog
8:16 AM 46.0 °F 46.0 °F 100% 30.02 in 1.2 mi Calm Calm - N/A   Overcast
8:53 AM 46.9 °F 46.0 °F 97% 30.02 in 10.0 mi Calm Calm - N/A   Overcast
9:53 AM 50.0 °F 46.9 °F 89% 30.01 in 10.0 mi Calm Calm - N/A   Mostly Cloudy
10:53 AM 52.0 °F 46.9 °F 83% 30.01 in 10.0 mi Calm Calm - N/A   Overcast
11:53 AM 55.0 °F 48.0 °F 77% 30.00 in 10.0 mi Calm Calm - N/A   Overcast
12:53 PM 57.0 °F 48.0 °F 72% 29.99 in 10.0 mi Calm Calm - N/A   Mostly Cloudy
1:53 PM 60.1 °F 46.0 °F 60% 29.99 in 10.0 mi Variable 4.6 mph - N/A   Overcast
2:53 PM 62.1 °F 48.0 °F 60% 29.98 in 10.0 mi SSE 6.9 mph - N/A   Overcast
3:53 PM 63.0 °F 48.0 °F 58% 29.98 in 10.0 mi Variable 3.5 mph - N/A   Overcast
4:53 PM 64.0 °F 48.9 °F 58% 29.97 in 10.0 mi Calm Calm - N/A   Overcast
5:53 PM 62.1 °F 50.0 °F 65% 29.99 in 8.0 mi Calm Calm - N/A   Mostly Cloudy
6:53 PM 57.0 °F 51.1 °F 81% 30.01 in 10.0 mi Calm Calm - N/A   Scattered Clouds
7:53 PM 57.0 °F 45.0 °F 64% 30.03 in 10.0 mi WNW 3.5 mph - N/A   Clear
8:53 PM 51.1 °F 45.0 °F 80% 30.04 in 10.0 mi Calm Calm - N/A   Clear
9:53 PM 51.1 °F 43.0 °F 74% 30.06 in 10.0 mi Variable 3.5 mph - N/A   Clear
10:53 PM 46.0 °F 41.0 °F 83% 30.08 in 10.0 mi Calm Calm - N/A   Clear
11:53 PM 41.0 °F 37.9 °F 89% 30.09 in 10.0 mi Calm Calm - N/A   Clear